Main page
METAR-TAF:

METAR-TAF

Airports :

Bétera-Valencia

Valencia, Spain

latitude: 39-37-26N, longitude: 0-28-26W, elevation: 127 m

Current weather observation

The report was made 32 minutes ago, at 12:00 UTC
Wind 7 kt from the East/Southeast, varying between Northeast and South
Temperature 31°C
Humidity 38%
Pressure 1017 hPa
Visibility 10 km or more

METAR: LEBT 251200Z AUTO 11007KT 050V170 9999 NCD 31/15 Q1017

Time: 14:32 (12:32 UTC)


TAF: missing

Weather observations and forecasts of more than 4000 airports (METAR and TAF reports).

The available stations are represented by yellow and red dots on the map.

Hover mouse over dot to see the name of the station.

Then click to see weather observations and forecasts.

To change the map : click on the green buttons with a black cross to zoom in, on the green button with a dash to zoom out, or on the green arrows for adjacent maps.


METAR-TAF: